Total_Precipitation_Accumulation
0.00 0.00 0.01 0.01 0.00 0.01 0.01 0.03 0.07 0.11 0.06 0.08 0.14 0.20 0.28 0.37 0.40 0.42 0.42 0.40 0.37 0.42 0.55 0.77 0.93 1.16 1.53 1.95 2.53 3.14 3.62 3.67 3.42 3.05 2.66 2.39 2.06 1.83 1.61 1.37 1.19 1.11 1.10 1.17
0.01 0.01 0.01 0.02 0.02 0.02 0.03 0.05 0.09 0.10 0.07 0.07 0.15 0.27 0.40 0.40 0.40 0.43 0.43 0.41 0.44 0.54 0.70 0.86 1.11 1.32 1.52 1.91 2.32 2.61 2.53 2.29 2.12 2.03 1.90 1.64 1.61 1.60 1.54 1.45 1.25 1.05 1.06 1.05
0.03 0.03 0.01 0.02 0.03 0.03 0.04 0.05 0.08 0.12 0.17 0.13 0.14 0.32 0.54 0.57 0.49 0.41 0.41 0.38 0.37 0.47 0.64 0.86 1.14 1.31 1.34 1.54 1.69 1.61 1.36 1.10 1.06 1.08 1.02 1.15 1.34 1.46 1.50 1.53 1.44 1.28 1.22 1.18
0.01 0.02 0.02 0.03 0.05 0.04 0.06 0.04 0.05 0.07 0.12 0.22 0.28 0.50 0.73 0.80 0.76 0.55 0.46 0.47 0.41 0.42 0.50 0.70 0.89 0.92 0.99 1.03 0.91 0.79 0.69 0.59 0.56 0.56 0.61 0.68 0.88 1.17 1.38 1.55 1.60 1.61 1.52 1.37
0.02 0.03 0.03 0.04 0.04 0.04 0.04 0.03 0.04 0.06 0.08 0.14 0.27 0.44 0.75 0.93 1.10 0.68 0.46 0.44 0.39 0.42 0.52 0.54 0.52 0.52 0.55 0.54 0.46 0.41 0.43 0.45 0.46 0.47 0.56 0.59 0.56 0.62 0.64 0.72 0.85 1.02 1.14 1.10
0.03 0.04 0.04 0.03 0.03 0.04 0.04 0.07 0.08 0.13 0.14 0.24 0.34 0.40 0.67 0.81 0.86 0.55 0.42 0.41 0.31 0.31 0.34 0.35 0.34 0.33 0.31 0.29 0.26 0.33 0.40 0.50 0.51 0.52 0.55 0.55 0.54 0.60 0.60 0.60 0.63 0.63 0.66 0.68
0.13 0.10 0.07 0.04 0.04 0.05 0.05 0.07 0.19 0.45 0.62 0.66 0.45 0.46 0.64 0.59 0.57 0.57 0.46 0.36 0.28 0.22 0.18 0.19 0.20 0.22 0.18 0.17 0.15 0.17 0.25 0.34 0.36 0.39 0.44 0.47 0.54 0.57 0.53 0.48 0.46 0.45 0.45 0.47
0.15 0.16 0.07 0.04 0.05 0.04 0.05 0.06 0.15 0.27 0.35 0.47 0.40 0.63 0.71 0.53 0.51 0.44 0.32 0.25 0.21 0.13 0.09 0.08 0.08 0.09 0.09 0.09 0.10 0.10 0.11 0.15 0.20 0.26 0.35 0.49 0.66 0.72 0.68 0.66 0.53 0.49 0.48 0.47
0.04 0.04 0.03 0.04 0.05 0.06 0.06 0.05 0.06 0.08 0.10 0.23 0.38 0.61 0.58 0.42 0.44 0.36 0.23 0.15 0.11 0.08 0.07 0.04 0.04 0.04 0.04 0.05 0.05 0.06 0.07 0.10 0.18 0.25 0.32 0.37 0.42 0.50 0.51 0.52 0.51 0.48 0.54 0.50
0.01 0.01 0.02 0.04 0.05 0.06 0.06 0.05 0.04 0.05 0.08 0.12 0.25 0.53 0.59 0.48 0.47 0.37 0.24 0.14 0.08 0.06 0.04 0.02 0.02 0.02 0.02 0.03 0.05 0.08 0.07 0.14 0.28 0.40 0.46 0.36 0.29 0.27 0.34 0.43 0.49 0.51 0.54 0.55
0.01 0.01 0.02 0.03 0.05 0.07 0.07 0.06 0.06 0.06 0.06 0.10 0.16 0.33 0.31 0.30 0.28 0.25 0.18 0.12 0.10 0.07 0.03 0.01 0.01 0.01 0.02 0.03 0.07 0.18 0.24 0.31 0.43 0.58 0.66 0.55 0.38 0.31 0.32 0.35 0.34 0.37 0.45 0.55
0.01 0.01 0.02 0.04 0.08 0.08 0.08 0.08 0.07 0.08 0.07 0.07 0.10 0.22 0.14 0.13 0.12 0.10 0.07 0.06 0.04 0.02 0.01 0.01 0.01 0.01 0.01 0.03 0.14 0.38 0.63 0.89 0.95 1.03 1.11 0.96 0.58 0.36 0.29 0.24 0.23 0.30 0.42 0.52
0.00 0.01 0.04 0.12 0.13 0.11 0.08 0.07 0.07 0.06 0.05 0.06 0.15 0.23 0.12 0.07 0.06 0.05 0.03 0.02 0.01 0.01 0.01 0.01 0.01 0.01 0.01 0.03 0.09 0.24 0.32 0.56 0.77 0.93 1.04 0.84 0.46 0.26 0.20 0.18 0.23 0.36 0.48 0.52
0.01 0.01 0.02 0.07 0.06 0.06 0.06 0.06 0.06 0.04 0.06 0.09 0.12 0.23 0.15 0.05 0.03 0.02 0.01 0.01 0.01 0.01 0.01 0.01 0.01 0.01 0.02 0.02 0.04 0.14 0.19 0.20 0.29 0.53 0.68 0.55 0.32 0.21 0.17 0.18 0.23 0.29 0.32 0.38
0.01 0.00 0.00 0.01 0.02 0.03 0.05 0.06 0.06 0.04 0.04 0.14 0.10 0.11 0.09 0.04 0.02 0.02 0.01 0.01 0.01 0.01 0.01 0.01 0.01 0.01 0.02 0.02 0.04 0.10 0.15 0.15 0.23 0.43 0.54 0.43 0.27 0.19 0.13 0.11 0.13 0.18 0.26 0.32
0.01 0.00 0.00 0.01 0.02 0.02 0.04 0.08 0.06 0.03 0.02 0.02 0.03 0.05 0.02 0.02 0.02 0.02 0.02 0.02 0.02 0.02 0.02 0.02 0.02 0.01 0.02 0.03 0.04 0.04 0.07 0.12 0.21 0.37 0.49 0.43 0.33 0.21 0.13 0.11 0.13 0.20 0.26 0.32
0.01 0.00 0.00 0.01 0.03 0.03 0.10 0.09 0.05 0.02 0.02 0.03 0.04 0.05 0.03 0.04 0.04 0.04 0.05 0.04 0.03 0.02 0.02 0.01 0.01 0.01 0.01 0.03 0.05 0.06 0.06 0.10 0.22 0.37 0.46 0.47 0.42 0.32 0.24 0.17 0.17 0.23 0.29 0.33
0.01 0.01 0.01 0.01 0.02 0.08 0.09 0.03 0.02 0.03 0.03 0.03 0.04 0.05 0.05 0.06 0.05 0.05 0.06 0.04 0.02 0.01 0.01 0.01 0.01 0.01 0.01 0.02 0.03 0.05 0.06 0.10 0.19 0.31 0.44 0.50 0.49 0.45 0.43 0.33 0.31 0.34 0.38 0.41
0.03 0.03 0.03 0.02 0.02 0.06 0.05 0.04 0.05 0.05 0.04 0.05 0.06 0.06 0.06 0.05 0.04 0.04 0.03 0.02 0.01 0.01 0.01 0.01 0.01 0.02 0.02 0.03 0.03 0.04 0.06 0.10 0.17 0.26 0.41 0.50 0.52 0.51 0.49 0.48 0.47 0.50 0.54 0.50
0.04 0.04 0.04 0.03 0.06 0.08 0.06 0.06 0.08 0.07 0.12 0.09 0.06 0.04 0.03 0.03 0.05 0.02 0.01 0.01 0.01 0.01 0.01 0.01 0.01 0.02 0.03 0.04 0.05 0.07 0.09 0.15 0.23 0.28 0.39 0.54 0.64 0.69 0.69 0.66 0.61 0.61 0.70 0.63
0.03 0.03 0.04 0.06 0.10 0.09 0.04 0.05 0.05 0.11 0.14 0.04 0.02 0.02 0.03 0.06 0.09 0.05 0.02 0.01 0.01 0.01 0.01 0.02 0.02 0.03 0.05 0.06 0.10 0.15 0.19 0.25 0.27 0.31 0.37 0.51 0.71 0.81 0.81 0.83 0.79 0.76 0.77 0.78
0.01 0.03 0.04 0.06 0.12 0.13 0.03 0.02 0.04 0.06 0.04 0.04 0.05 0.05 0.06 0.05 0.03 0.02 0.01 0.01 0.01 0.01 0.01 0.02 0.03 0.05 0.06 0.10 0.19 0.28 0.33 0.34 0.35 0.39 0.47 0.58 0.71 0.65 0.66 0.89 0.94 0.96 1.00 0.99
0.00 0.02 0.05 0.06 0.08 0.03 0.01 0.02 0.03 0.04 0.07 0.07 0.07 0.05 0.03 0.03 0.02 0.02 0.02 0.02 0.02 0.02 0.03 0.04 0.06 0.09 0.13 0.21 0.35 0.47 0.47 0.46 0.46 0.50 0.56 0.63 0.70 0.80 0.93 1.01 1.03 1.06 1.10 1.11
0.00 0.01 0.03 0.07 0.04 0.02 0.02 0.03 0.03 0.03 0.04 0.03 0.02 0.02 0.02 0.03 0.04 0.04 0.04 0.03 0.03 0.02 0.03 0.05 0.10 0.19 0.27 0.37 0.50 0.58 0.57 0.57 0.56 0.58 0.59 0.63 0.74 0.83 0.95 1.12 1.18 1.19 1.15 1.14
0.01 0.02 0.04 0.07 0.05 0.03 0.04 0.04 0.02 0.01 0.01 0.01 0.01 0.01 0.03 0.05 0.06 0.06 0.06 0.05 0.04 0.04 0.05 0.09 0.17 0.26 0.34 0.47 0.58 0.59 0.61 0.68 0.71 0.67 0.66 0.66 0.75 0.89 0.97 1.09 1.18 1.19 1.23 1.07
0.01 0.04 0.06 0.07 0.06 0.07 0.07 0.04 0.02 0.02 0.02 0.03 0.03 0.03 0.04 0.05 0.06 0.06 0.06 0.06 0.05 0.05 0.08 0.15 0.24 0.29 0.34 0.45 0.60 0.65 0.73 0.81 0.85 0.82 0.74 0.70 0.76 0.89 0.99 1.09 1.10 0.94 0.88 0.71